WGS F1 (USA 195)

Last updated on Wed Nov 20 2024 00:02:39 GMT+0000 (Coordinated Universal Time)

1 32258U 07046A 24323.78593687 -.00000264 00000+0 00000+0 0 9995 2 32258 0.1216 91.5819 0000723 142.2885 64.9105 1.00269985 62549
UTC large
Height (km)
Speed (km/s)
/
Latitude / Longitude
Inclination (degrees)
Orbital Period (minutes)
Azimuth
Elevation
Range (km)
Doppler Factor

Next 0 passes for location: London (51.5072 / 0.1276)

Sorry there are no passes over London.